QPF
0.00 0.00 0.00 0.00 0.00 0.00 0.00 0.00 0.00 0.00 0.00 0.00 0.00 0.00 0.00 0.00 0.00 0.00 0.00 0.00 0.00 0.00 0.00 0.00 0.00 0.00 0.00 0.00 0.00 0.00 0.00 0.00 0.00 0.00 0.00 0.00 0.00 0.00 0.00 0.00 0.00 0.00 0.00
0.00 0.00 0.00 0.00 0.00 0.00 0.00 0.00 0.00 0.00 0.00 0.00 0.00 0.00 0.00 0.00 0.00 0.00 0.00 0.00 0.00 0.00 0.00 0.00 0.00 0.00 0.00 0.00 0.00 0.00 0.00 0.00 0.00 0.00 0.00 0.00 0.00 0.00 0.00 0.00 0.00 0.00 0.00
0.00 0.00 0.00 0.00 0.00 0.00 0.00 0.00 0.00 0.00 0.00 0.00 0.00 0.00 0.00 0.00 0.00 0.00 0.00 0.00 0.00 0.00 0.00 0.00 0.00 0.00 0.00 0.00 0.00 0.00 0.00 0.00 0.00 0.00 0.00 0.00 0.00 0.00 0.00 0.00 0.00 0.00 0.00
0.00 0.00 0.00 0.00 0.00 0.00 0.00 0.00 0.00 0.00 0.00 0.00 0.00 0.00 0.00 0.00 0.00 0.00 0.00 0.00 0.00 0.00 0.00 0.00 0.00 0.00 0.00 0.00 0.00 0.00 0.00 0.00 0.00 0.00 0.00 0.00 0.00 0.00 0.00 0.00 0.00 0.00 0.00
0.00 0.00 0.00 0.00 0.00 0.00 0.00 0.00 0.00 0.00 0.00 0.00 0.00 0.00 0.00 0.00 0.00 0.00 0.00 0.00 0.00 0.00 0.00 0.00 0.00 0.00 0.00 0.00 0.00 0.00 0.00 0.00 0.00 0.00 0.00 0.00 0.00 0.00 0.00 0.00 0.00 0.00 0.00
0.00 0.00 0.00 0.00 0.00 0.00 0.00 0.00 0.00 0.00 0.00 0.00 0.00 0.00 0.00 0.00 0.00 0.00 0.00 0.00 0.00 0.00 0.00 0.00 0.00 0.00 0.00 0.00 0.00 0.00 0.00 0.00 0.00 0.00 0.00 0.00 0.00 0.00 0.00 0.00 0.00 0.00 0.00
0.00 0.00 0.00 0.00 0.00 0.00 0.00 0.00 0.00 0.00 0.00 0.00 0.00 0.00 0.00 0.00 0.00 0.00 0.01 0.01 0.01 0.01 0.00 0.00 0.00 0.00 0.00 0.00 0.00 0.00 0.00 0.00 0.00 0.00 0.00 0.00 0.00 0.00 0.00 0.00 0.00 0.00 0.00
0.00 0.00 0.00 0.00 0.00 0.00 0.00 0.00 0.00 0.00 0.00 0.00 0.00 0.00 0.00 0.00 0.00 0.00 0.01 0.02 0.02 0.01 0.01 0.01 0.00 0.00 0.00 0.00 0.00 0.00 0.00 0.00 0.00 0.00 0.00 0.00 0.00 0.00 0.00 0.00 0.00 0.00 0.00
0.00 0.00 0.00 0.00 0.00 0.00 0.00 0.00 0.00 0.00 0.00 0.00 0.00 0.00 0.00 0.00 0.00 0.00 0.01 0.02 0.02 0.01 0.01 0.01 0.01 0.01 0.01 0.01 0.01 0.01 0.01 0.00 0.00 0.00 0.00 0.01 0.01 0.01 0.01 0.00 0.00 0.00 0.00
0.00 0.00 0.00 0.00 0.00 0.00 0.00 0.00 0.00 0.00 0.00 0.00 0.00 0.00 0.00 0.00 0.00 0.00 0.00 0.01 0.02 0.01 0.01 0.01 0.01 0.01 0.01 0.02 0.03 0.03 0.02 0.01 0.00 0.01 0.01 0.01 0.01 0.01 0.01 0.01 0.00 0.00 0.00
0.00 0.00 0.00 0.00 0.00 0.00 0.00 0.00 0.00 0.00 0.00 0.00 0.00 0.00 0.00 0.00 0.00 0.00 0.00 0.01 0.01 0.01 0.01 0.01 0.01 0.01 0.02 0.03 0.05 0.05 0.03 0.02 0.02 0.04 0.04 0.04 0.04 0.03 0.02 0.01 0.00 0.00 0.01
0.00 0.00 0.00 0.00 0.00 0.00 0.00 0.00 0.00 0.00 0.00 0.00 0.00 0.00 0.00 0.00 0.00 0.00 0.00 0.01 0.01 0.02 0.02 0.01 0.01 0.01 0.02 0.05 0.08 0.09 0.07 0.09 0.12 0.11 0.10 0.08 0.06 0.04 0.02 0.01 0.01 0.00 0.01
0.00 0.00 0.00 0.00 0.00 0.00 0.00 0.00 0.00 0.00 0.00 0.00 0.00 0.00 0.00 0.00 0.00 0.00 0.00 0.00 0.01 0.03 0.03 0.02 0.02 0.03 0.04 0.07 0.09 0.11 0.15 0.20 0.20 0.14 0.10 0.06 0.04 0.03 0.04 0.04 0.04 0.03 0.02
0.00 0.00 0.00 0.00 0.00 0.00 0.00 0.00 0.00 0.00 0.00 0.00 0.00 0.00 0.00 0.00 0.00 0.00 0.00 0.01 0.02 0.03 0.04 0.04 0.04 0.05 0.07 0.10 0.10 0.13 0.17 0.17 0.14 0.10 0.07 0.07 0.08 0.10 0.11 0.10 0.09 0.07 0.05
0.00 0.00 0.00 0.00 0.00 0.00 0.00 0.00 0.00 0.00 0.01 0.02 0.02 0.02 0.02 0.01 0.01 0.01 0.02 0.02 0.03 0.04 0.06 0.08 0.06 0.07 0.09 0.11 0.11 0.11 0.14 0.15 0.13 0.11 0.12 0.14 0.15 0.14 0.13 0.11 0.09 0.08 0.07
0.00 0.00 0.00 0.00 0.00 0.00 0.00 0.00 0.00 0.00 0.01 0.02 0.03 0.04 0.04 0.03 0.03 0.03 0.03 0.03 0.04 0.05 0.11 0.10 0.05 0.04 0.05 0.06 0.08 0.10 0.12 0.13 0.12 0.12 0.13 0.13 0.13 0.12 0.12 0.12 0.11 0.10 0.09
0.00 0.00 0.00 0.00 0.00 0.00 0.00 0.00 0.01 0.00 0.00 0.01 0.01 0.02 0.03 0.04 0.04 0.04 0.05 0.05 0.05 0.07 0.12 0.08 0.04 0.03 0.05 0.07 0.09 0.10 0.10 0.10 0.12 0.14 0.15 0.14 0.13 0.13 0.12 0.12 0.12 0.12 0.11
0.00 0.00 0.00 0.00 0.00 0.00 0.01 0.01 0.01 0.01 0.01 0.00 0.00 0.01 0.02 0.03 0.04 0.05 0.06 0.09 0.09 0.07 0.08 0.05 0.04 0.04 0.06 0.09 0.10 0.10 0.11 0.12 0.14 0.15 0.16 0.15 0.14 0.13 0.13 0.12 0.11 0.10 0.09
0.00 0.00 0.00 0.01 0.01 0.01 0.01 0.01 0.01 0.01 0.01 0.01 0.01 0.00 0.01 0.02 0.03 0.03 0.05 0.09 0.07 0.04 0.04 0.04 0.05 0.06 0.09 0.11 0.11 0.11 0.11 0.11 0.13 0.15 0.16 0.15 0.14 0.12 0.12 0.11 0.10 0.09 0.08
0.00 0.00 0.00 0.01 0.01 0.01 0.01 0.01 0.02 0.02 0.02 0.02 0.01 0.01 0.02 0.03 0.03 0.02 0.03 0.05 0.05 0.04 0.05 0.06 0.07 0.08 0.10 0.12 0.12 0.12 0.14 0.14 0.15 0.15 0.15 0.14 0.13 0.12 0.11 0.10 0.09 0.08 0.07
0.01 0.00 0.00 0.01 0.01 0.01 0.02 0.02 0.02 0.03 0.03 0.02 0.02 0.02 0.05 0.07 0.04 0.04 0.05 0.07 0.08 0.07 0.07 0.07 0.08 0.08 0.10 0.12 0.12 0.13 0.13 0.14 0.13 0.12 0.12 0.12 0.12 0.11 0.10 0.09 0.08 0.08 0.07
0.01 0.01 0.01 0.01 0.01 0.01 0.02 0.02 0.03 0.03 0.03 0.03 0.02 0.02 0.03 0.04 0.04 0.04 0.05 0.07 0.09 0.09 0.08 0.07 0.07 0.08 0.10 0.11 0.11 0.11 0.11 0.10 0.10 0.10 0.11 0.11 0.11 0.10 0.09 0.08 0.07 0.06 0.05
0.01 0.01 0.01 0.01 0.01 0.01 0.01 0.01 0.02 0.02 0.02 0.03 0.03 0.03 0.03 0.03 0.04 0.04 0.05 0.07 0.08 0.08 0.08 0.08 0.08 0.10 0.11 0.11 0.10 0.08 0.08 0.08 0.08 0.08 0.09 0.09 0.09 0.08 0.07 0.06 0.06 0.05 0.04
0.00 0.00 0.01 0.01 0.01 0.01 0.01 0.01 0.01 0.02 0.02 0.02 0.03 0.03 0.03 0.04 0.04 0.05 0.06 0.06 0.06 0.07 0.07 0.08 0.08 0.09 0.08 0.08 0.08 0.08 0.08 0.08 0.09 0.09 0.09 0.08 0.07 0.07 0.06 0.05 0.04 0.03 0.03
0.00 0.00 0.00 0.00 0.01 0.01 0.01 0.01 0.01 0.01 0.02 0.02 0.03 0.03 0.03 0.04 0.04 0.04 0.05 0.05 0.06 0.06 0.06 0.06 0.06 0.07 0.07 0.06 0.06 0.07 0.07 0.07 0.07 0.07 0.07 0.06 0.06 0.05 0.04 0.03 0.03 0.02 0.01
0.00 0.00 0.00 0.00 0.00 0.00 0.00 0.01 0.01 0.01 0.01 0.02 0.02 0.03 0.03 0.04 0.04 0.04 0.05 0.05 0.05 0.05 0.05 0.05 0.06 0.06 0.05 0.05 0.05 0.05 0.05 0.05 0.05 0.05 0.04 0.04 0.03 0.03 0.02 0.02 0.01 0.01 0.01
MSLP
1021.73 1021.76 1021.69 1021.52 1021.24 1020.85 1020.39 1019.87 1019.35 1018.84 1018.37 1017.96 1017.59 1017.28 1017.01 1016.77 1016.55 1016.34 1016.14 1015.96 1015.79 1015.64 1015.51 1015.40 1015.32 1015.28 1015.27 1015.32 1015.42 1015.58 1015.82 1016.12 1016.49 1016.93 1017.41 1017.93 1018.46 1019.01 1019.55 1020.07 1020.57 1021.03 1021.44
1022.09 1022.11 1022.03 1021.84 1021.55 1021.16 1020.70 1020.20 1019.69 1019.18 1018.69 1018.24 1017.82 1017.45 1017.10 1016.78 1016.49 1016.22 1015.97 1015.74 1015.52 1015.33 1015.16 1015.00 1014.86 1014.75 1014.68 1014.65 1014.69 1014.80 1014.99 1015.26 1015.62 1016.04 1016.53 1017.06 1017.61 1018.18 1018.73 1019.27 1019.79 1020.27 1020.71
1022.14 1022.13 1022.02 1021.82 1021.53 1021.16 1020.73 1020.27 1019.79 1019.31 1018.84 1018.38 1017.94 1017.51 1017.10 1016.72 1016.35 1016.01 1015.70 1015.41 1015.15 1014.92 1014.71 1014.51 1014.34 1014.18 1014.06 1013.99 1013.98 1014.04 1014.20 1014.44 1014.76 1015.17 1015.64 1016.15 1016.70 1017.25 1017.81 1018.35 1018.88 1019.38 1019.84
1021.87 1021.82 1021.69 1021.47 1021.18 1020.84 1020.46 1020.06 1019.64 1019.21 1018.78 1018.33 1017.88 1017.42 1016.96 1016.50 1016.06 1015.65 1015.27 1014.93 1014.62 1014.35 1014.10 1013.88 1013.68 1013.50 1013.36 1013.27 1013.23 1013.26 1013.38 1013.59 1013.88 1014.25 1014.68 1015.16 1015.67 1016.19 1016.73 1017.26 1017.80 1018.32 1018.82
1021.39 1021.29 1021.12 1020.89 1020.61 1020.30 1019.97 1019.63 1019.28 1018.91 1018.52 1018.10 1017.64 1017.15 1016.63 1016.11 1015.59 1015.10 1014.65 1014.24 1013.88 1013.57 1013.30 1013.06 1012.86 1012.67 1012.53 1012.42 1012.38 1012.40 1012.49 1012.66 1012.91 1013.23 1013.61 1014.04 1014.50 1014.98 1015.49 1016.01 1016.54 1017.09 1017.63
1020.82 1020.68 1020.48 1020.23 1019.96 1019.68 1019.39 1019.11 1018.81 1018.48 1018.12 1017.71 1017.24 1016.71 1016.14 1015.54 1014.95 1014.37 1013.84 1013.37 1012.96 1012.61 1012.31 1012.06 1011.85 1011.67 1011.53 1011.42 1011.37 1011.38 1011.45 1011.60 1011.81 1012.08 1012.40 1012.78 1013.18 1013.62 1014.10 1014.60 1015.13 1015.70 1016.29
1020.35 1020.17 1019.94 1019.68 1019.41 1019.14 1018.87 1018.61 1018.34 1018.03 1017.67 1017.25 1016.74 1016.16 1015.52 1014.84 1014.16 1013.50 1012.89 1012.35 1011.88 1011.49 1011.16 1010.90 1010.68 1010.50 1010.35 1010.25 1010.20 1010.19 1010.25 1010.36 1010.54 1010.77 1011.05 1011.37 1011.74 1012.14 1012.59 1013.08 1013.62 1014.20 1014.83
1020.14 1019.93 1019.68 1019.39 1019.11 1018.82 1018.55 1018.28 1017.99 1017.66 1017.26 1016.78 1016.21 1015.56 1014.84 1014.08 1013.31 1012.57 1011.88 1011.26 1010.73 1010.29 1009.92 1009.63 1009.38 1009.19 1009.04 1008.92 1008.86 1008.84 1008.87 1008.97 1009.11 1009.32 1009.57 1009.87 1010.22 1010.61 1011.04 1011.53 1012.08 1012.68 1013.34
1020.26 1020.04 1019.76 1019.45 1019.12 1018.80 1018.48 1018.15 1017.80 1017.40 1016.93 1016.37 1015.71 1014.97 1014.15 1013.30 1012.45 1011.62 1010.86 1010.17 1009.58 1009.08 1008.66 1008.32 1008.04 1007.81 1007.62 1007.48 1007.39 1007.35 1007.36 1007.44 1007.58 1007.78 1008.03 1008.34 1008.69 1009.08 1009.53 1010.03 1010.59 1011.22 1011.90
1020.69 1020.46 1020.15 1019.80 1019.42 1019.03 1018.63 1018.21 1017.75 1017.25 1016.67 1016.00 1015.23 1014.39 1013.48 1012.54 1011.61 1010.71 1009.88 1009.13 1008.47 1007.91 1007.43 1007.03 1006.69 1006.40 1006.16 1005.98 1005.85 1005.78 1005.78 1005.86 1006.00 1006.22 1006.50 1006.84 1007.23 1007.66 1008.14 1008.68 1009.26 1009.89 1010.58
1021.33 1021.08 1020.73 1020.32 1019.86 1019.38 1018.87 1018.33 1017.75 1017.12 1016.41 1015.62 1014.74 1013.80 1012.80 1011.79 1010.79 1009.83 1008.94 1008.14 1007.42 1006.80 1006.26 1005.78 1005.37 1005.01 1004.71 1004.47 1004.29 1004.20 1004.19 1004.27 1004.45 1004.70 1005.04 1005.44 1005.90 1006.40 1006.94 1007.51 1008.12 1008.76 1009.45
1022.01 1021.71 1021.30 1020.82 1020.27 1019.68 1019.05 1018.38 1017.66 1016.89 1016.05 1015.14 1014.16 1013.13 1012.06 1010.99 1009.95 1008.95 1008.02 1007.17 1006.41 1005.73 1005.12 1004.58 1004.09 1003.66 1003.28 1002.98 1002.77 1002.65 1002.65 1002.75 1002.97 1003.30 1003.71 1004.20 1004.74 1005.32 1005.93 1006.56 1007.19 1007.85 1008.53
1022.52 1022.16 1021.68 1021.10 1020.46 1019.76 1019.01 1018.21 1017.36 1016.46 1015.50 1014.49 1013.42 1012.31 1011.20 1010.09 1009.02 1008.00 1007.05 1006.17 1005.38 1004.65 1003.98 1003.37 1002.82 1002.32 1001.89 1001.54 1001.30 1001.18 1001.19 1001.33 1001.62 1002.02 1002.53 1003.12 1003.76 1004.43 1005.11 1005.79 1006.46 1007.13 1007.80
1022.74 1022.29 1021.72 1021.05 1020.31 1019.50 1018.64 1017.73 1016.77 1015.76 1014.70 1013.60 1012.46 1011.31 1010.16 1009.03 1007.95 1006.92 1005.96 1005.07 1004.25 1003.49 1002.78 1002.12 1001.52 1000.97 1000.50 1000.14 999.89 999.78 999.83 1000.03 1000.39 1000.88 1001.49 1002.18 1002.93 1003.68 1004.44 1005.17 1005.88 1006.55 1007.21
1022.59 1022.04 1021.38 1020.62 1019.79 1018.90 1017.94 1016.94 1015.90 1014.80 1013.67 1012.50 1011.31 1010.12 1008.95 1007.81 1006.72 1005.69 1004.73 1003.83 1003.00 1002.22 1001.48 1000.80 1000.17 999.60 999.12 998.76 998.53 998.46 998.56 998.84 999.28 999.87 1000.57 1001.36 1002.19 1003.03 1003.85 1004.62 1005.36 1006.04 1006.69
1022.09 1021.44 1020.70 1019.87 1018.98 1018.02 1017.00 1015.94 1014.82 1013.67 1012.48 1011.26 1010.03 1008.81 1007.62 1006.47 1005.37 1004.34 1003.37 1002.47 1001.62 1000.83 1000.09 999.39 998.76 998.20 997.74 997.41 997.23 997.22 997.39 997.75 998.28 998.95 999.74 1000.61 1001.51 1002.41 1003.27 1004.09 1004.84 1005.54 1006.20
1021.37 1020.64 1019.84 1018.97 1018.03 1017.04 1015.98 1014.88 1013.72 1012.52 1011.28 1010.02 1008.75 1007.50 1006.28 1005.11 1004.00 1002.95 1001.97 1001.06 1000.21 999.41 998.66 997.97 997.36 996.83 996.41 996.13 996.02 996.08 996.33 996.77 997.37 998.12 998.98 999.90 1000.85 1001.79 1002.69 1003.52 1004.30 1005.02 1005.69
1020.55 1019.78 1018.96 1018.07 1017.13 1016.13 1015.06 1013.93 1012.75 1011.51 1010.23 1008.93 1007.62 1006.34 1005.08 1003.88 1002.74 1001.67 1000.67 999.74 998.87 998.07 997.33 996.65 996.06 995.57 995.21 994.99 994.95 995.09 995.42 995.92 996.59 997.40 998.30 999.26 1000.23 1001.18 1002.10 1002.95 1003.74 1004.47 1005.17
1019.78 1019.02 1018.21 1017.35 1016.43 1015.44 1014.37 1013.24 1012.04 1010.77 1009.46 1008.12 1006.78 1005.45 1004.17 1002.93 1001.76 1000.66 999.63 998.67 997.79 996.98 996.24 995.58 995.02 994.57 994.26 994.11 994.13 994.33 994.72 995.28 995.99 996.82 997.74 998.71 999.69 1000.64 1001.55 1002.41 1003.21 1003.96 1004.69
1019.15 1018.44 1017.68 1016.87 1015.99 1015.04 1014.00 1012.87 1011.66 1010.38 1009.04 1007.68 1006.31 1004.95 1003.64 1002.37 1001.18 1000.05 999.00 998.03 997.13 996.31 995.58 994.93 994.39 993.97 993.70 993.59 993.66 993.90 994.33 994.91 995.64 996.48 997.39 998.34 999.30 1000.23 1001.13 1001.98 1002.78 1003.56 1004.31
1018.70 1018.07 1017.40 1016.66 1015.84 1014.93 1013.91 1012.80 1011.60 1010.32 1008.98 1007.62 1006.24 1004.88 1003.56 1002.29 1001.09 999.96 998.90 997.92 997.02 996.20 995.46 994.82 994.29 993.89 993.63 993.54 993.63 993.89 994.32 994.91 995.62 996.44 997.32 998.23 999.15 1000.05 1000.92 1001.76 1002.56 1003.34 1004.12
1018.42 1017.89 1017.31 1016.65 1015.90 1015.03 1014.06 1012.98 1011.80 1010.54 1009.22 1007.88 1006.54 1005.21 1003.92 1002.69 1001.52 1000.41 999.37 998.41 997.51 996.69 995.96 995.31 994.78 994.38 994.13 994.03 994.11 994.36 994.76 995.32 995.99 996.76 997.59 998.45 999.31 1000.17 1001.00 1001.81 1002.59 1003.38 1004.16
1018.26 1017.84 1017.34 1016.76 1016.06 1015.25 1014.32 1013.28 1012.14 1010.94 1009.68 1008.40 1007.13 1005.88 1004.67 1003.51 1002.41 1001.37 1000.38 999.45 998.58 997.78 997.05 996.41 995.87 995.45 995.17 995.05 995.10 995.30 995.66 996.16 996.77 997.47 998.23 999.02 999.82 1000.62 1001.40 1002.16 1002.92 1003.68 1004.45
1018.18 1017.84 1017.41 1016.89 1016.25 1015.48 1014.60 1013.61 1012.54 1011.41 1010.24 1009.07 1007.91 1006.78 1005.69 1004.64 1003.65 1002.70 1001.79 1000.92 1000.10 999.32 998.60 997.96 997.41 996.97 996.66 996.50 996.50 996.64 996.94 997.36 997.90 998.52 999.19 999.90 1000.63 1001.35 1002.07 1002.79 1003.50 1004.22 1004.95
1018.14 1017.85 1017.47 1016.98 1016.38 1015.65 1014.82 1013.90 1012.92 1011.89 1010.84 1009.80 1008.78 1007.79 1006.85 1005.94 1005.08 1004.24 1003.42 1002.63 1001.86 1001.11 1000.42 999.77 999.21 998.75 998.41 998.21 998.15 998.23 998.46 998.81 999.26 999.79 1000.38 1001.00 1001.65 1002.29 1002.94 1003.58 1004.23 1004.88 1005.55
1018.11 1017.85 1017.49 1017.02 1016.44 1015.76 1014.98 1014.14 1013.25 1012.33 1011.42 1010.52 1009.66 1008.83 1008.03 1007.27 1006.53 1005.80 1005.07 1004.35 1003.64 1002.93 1002.26 1001.62 1001.06 1000.58 1000.22 999.98 999.87 999.90 1000.06 1000.33 1000.70 1001.14 1001.64 1002.18 1002.73 1003.29 1003.85 1004.41 1004.98 1005.55 1006.14
Thickness
5451 5451 5451 5452 5454 5456 5457 5458 5460 5463 5466 5469 5473 5478 5482 5486 5489 5491 5493 5495 5498 5501 5503 5505 5508 5508 5509 5511 5512 5514 5516 5517 5520 5518 5518 5518 5514 5513 5509 5507 5505 5504 5503
5427 5426 5427 5427 5428 5430 5432 5434 5436 5439 5442 5444 5448 5453 5457 5461 5465 5468 5472 5475 5478 5482 5485 5488 5492 5491 5495 5496 5496 5499 5502 5502 5502 5499 5499 5501 5502 5502 5498 5494 5493 5493 5492
5404 5403 5403 5403 5404 5405 5407 5409 5411 5414 5417 5420 5424 5428 5432 5436 5440 5445 5450 5454 5458 5463 5466 5470 5475 5474 5480 5480 5481 5485 5486 5485 5484 5483 5484 5487 5489 5488 5482 5479 5477 5478 5479
5380 5379 5378 5378 5379 5380 5382 5383 5385 5388 5392 5395 5399 5403 5407 5412 5416 5421 5426 5431 5436 5442 5446 5451 5456 5458 5463 5464 5466 5469 5469 5467 5467 5466 5466 5470 5473 5474 5470 5466 5462 5464 5465
5355 5353 5352 5352 5354 5355 5356 5358 5361 5363 5366 5369 5374 5378 5383 5387 5391 5396 5401 5407 5413 5420 5426 5431 5436 5440 5445 5447 5450 5454 5451 5453 5453 5453 5453 5453 5458 5460 5463 5461 5458 5452 5450
5327 5326 5326 5326 5327 5328 5329 5331 5334 5336 5338 5342 5347 5351 5356 5362 5367 5371 5376 5381 5388 5395 5403 5410 5414 5419 5425 5429 5433 5437 5438 5440 5444 5445 5447 5448 5456 5458 5456 5452 5445 5435 5437
5302 5300 5299 5298 5299 5301 5301 5303 5305 5306 5309 5313 5318 5321 5328 5336 5340 5344 5348 5352 5360 5370 5378 5386 5393 5399 5403 5408 5413 5417 5422 5429 5434 5436 5436 5447 5448 5448 5443 5438 5437 5439 5445
5276 5275 5274 5272 5273 5274 5273 5275 5275 5276 5278 5283 5287 5291 5296 5308 5313 5315 5318 5320 5329 5342 5352 5360 5368 5379 5383 5385 5388 5394 5403 5413 5420 5422 5428 5437 5432 5430 5430 5432 5430 5423 5420
5254 5252 5249 5245 5243 5244 5244 5245 5245 5244 5247 5250 5254 5260 5264 5277 5284 5285 5286 5287 5297 5312 5324 5333 5342 5353 5365 5364 5364 5375 5384 5395 5400 5403 5410 5414 5413 5414 5414 5409 5406 5402 5401
5232 5228 5223 5218 5213 5211 5211 5212 5212 5211 5215 5220 5226 5231 5233 5242 5254 5256 5257 5255 5266 5283 5296 5306 5316 5326 5337 5339 5341 5352 5365 5380 5378 5380 5386 5392 5395 5398 5400 5403 5405 5399 5396
5207 5202 5197 5190 5184 5181 5180 5180 5178 5179 5183 5189 5194 5202 5206 5212 5222 5229 5232 5230 5238 5251 5265 5280 5293 5302 5310 5316 5320 5330 5348 5355 5354 5358 5363 5370 5375 5381 5386 5390 5394 5394 5391
5182 5175 5169 5163 5158 5155 5153 5154 5152 5151 5154 5160 5166 5176 5184 5189 5195 5204 5210 5212 5217 5224 5242 5259 5271 5278 5284 5291 5298 5311 5323 5326 5330 5336 5344 5353 5360 5366 5371 5373 5373 5373 5376
5157 5150 5146 5143 5139 5134 5132 5132 5132 5131 5133 5138 5142 5151 5161 5165 5169 5174 5180 5187 5194 5202 5220 5237 5248 5256 5261 5269 5280 5291 5297 5302 5310 5318 5329 5339 5345 5346 5345 5345 5345 5347 5349
5137 5133 5130 5127 5125 5121 5117 5116 5116 5116 5116 5118 5121 5127 5135 5141 5143 5146 5150 5157 5166 5177 5192 5208 5221 5232 5241 5251 5261 5271 5279 5286 5293 5301 5310 5315 5317 5319 5321 5324 5324 5325 5324
5123 5121 5118 5115 5112 5110 5108 5105 5105 5106 5103 5106 5111 5114 5120 5129 5129 5129 5133 5140 5145 5153 5162 5176 5191 5205 5217 5230 5243 5254 5263 5268 5274 5281 5285 5290 5295 5298 5301 5303 5304 5305 5305
5114 5111 5108 5105 5103 5103 5104 5104 5101 5101 5102 5102 5104 5107 5112 5116 5121 5122 5125 5130 5136 5140 5145 5159 5174 5187 5200 5212 5223 5235 5244 5252 5258 5261 5265 5270 5275 5279 5280 5281 5282 5283 5283
5103 5101 5099 5097 5096 5096 5097 5099 5101 5102 5099 5100 5101 5103 5106 5110 5113 5115 5119 5123 5129 5132 5138 5151 5162 5174 5185 5195 5205 5215 5226 5234 5238 5242 5247 5252 5256 5258 5259 5260 5260 5260 5260
5097 5095 5093 5092 5091 5091 5092 5092 5093 5096 5100 5102 5103 5103 5106 5108 5109 5112 5116 5121 5126 5129 5135 5144 5153 5163 5173 5181 5190 5199 5207 5214 5219 5225 5230 5234 5237 5238 5239 5240 5241 5242 5242
5095 5093 5091 5090 5089 5089 5089 5089 5090 5092 5095 5099 5103 5106 5105 5106 5107 5110 5113 5116 5121 5126 5132 5140 5148 5156 5165 5173 5180 5186 5193 5200 5205 5209 5213 5216 5219 5220 5221 5221 5222 5222 5223
5093 5091 5090 5088 5088 5087 5087 5087 5087 5089 5091 5094 5096 5098 5100 5102 5104 5106 5109 5113 5119 5126 5133 5140 5149 5156 5162 5167 5172 5177 5182 5187 5191 5194 5198 5200 5201 5202 5203 5203 5203 5204 5204
5091 5090 5088 5086 5085 5084 5083 5083 5083 5083 5084 5085 5086 5088 5094 5092 5092 5095 5099 5105 5112 5123 5133 5141 5148 5154 5157 5161 5164 5167 5171 5174 5177 5180 5182 5184 5185 5185 5185 5185 5185 5184 5184
5087 5086 5084 5082 5081 5080 5079 5078 5078 5077 5077 5078 5079 5080 5083 5082 5083 5084 5088 5093 5100 5110 5122 5132 5137 5141 5146 5149 5153 5155 5157 5159 5162 5164 5166 5168 5168 5168 5167 5166 5166 5165 5165
5082 5081 5080 5078 5076 5075 5074 5072 5072 5071 5071 5071 5072 5074 5076 5077 5077 5078 5081 5085 5091 5098 5106 5113 5119 5124 5128 5132 5136 5139 5142 5145 5147 5151 5152 5153 5152 5152 5151 5151 5150 5149 5148
5077 5076 5075 5074 5072 5069 5067 5066 5065 5064 5064 5065 5066 5067 5068 5070 5072 5074 5075 5078 5082 5087 5093 5097 5101 5106 5111 5115 5119 5122 5125 5128 5131 5134 5137 5138 5138 5137 5136 5135 5134 5133 5132
5073 5071 5070 5068 5066 5063 5061 5059 5058 5057 5057 5058 5059 5060 5061 5063 5065 5068 5070 5072 5074 5077 5080 5084 5088 5092 5096 5100 5104 5107 5111 5114 5116 5118 5120 5121 5122 5122 5121 5120 5119 5117 5115
5068 5067 5065 5063 5060 5057 5055 5053 5051 5050 5050 5050 5050 5051 5053 5055 5057 5059 5061 5064 5066 5068 5071 5073 5075 5080 5083 5086 5090 5093 5096 5098 5100 5103 5104 5105 5105 5105 5104 5103 5101 5099 5097